Content
SEND FEEDBACK

Daily
Averages
Monthly
Summary
Mexico

CANCUN, QUINTANA ROO


Home > North America > Mexico > Quintana Roo
Elevation: 30 feet     Latitude: 21 09N     Longitude: 086 49W

WEATHER
 
SELECT A DAY
Number of Records: 163,723;   Date Range: 1/1/95 - 7/28/14
 
SHARE

PRINT THIS DATA

[ ← Previous Day ]
WEATHER ALMANAC - JANUARY 21, 2013
[ Next Day → ]
[ °C ]   °F
Weather ElementAverageHighLow
Temperature71.3 °F80.6 °F (1:44 pm)62.6 °F (4:41 am)
Dewpoint63.6 °F66.2 °F (8:44 am)60.8 °F (5:44 am)
Humidity78.3 %100 % (4:41 am)54 % (1:44 pm)
Barometer30.06 in30.11 in (9:41 am)30.02 in (2:41 am)
Wind Speed5.4 mph8.1 mph (2:47 pm)
Weather ElementAverage
Visibility7 mi
Wind DirectionSSW (218.7 °)

Weather ElementTotal
Precipitation---
Cooling Degree Days6.6 (Base 65)
Growing Degree Days21.6 (Base 50)
Averaged from 23 records on January 21, 2013
WEATHER CONDITIONS BREAKOUT
WIND DIRECTION BREAKOUT
WEATHER BY HOUR - JANUARY 21, 2013
[ °C ]   °F
Local TimeTemperatureDewpointHumidityBarometerVisibilityWind DirectionWind SpeedGust SpeedPrecipitationEventsConditions
1:44 AM64.4 °F62.6 °F94 %30.04 in7.0 miNNW (340°)4.6 mphPartly Cloudy
2:41 AM64.4 °F62.6 °F94 %30.02 in7.0 miNNW (330°)5.8 mphPartly Cloudy
3:43 AM64.4 °F62.6 °F94 %30.05 in7.0 miNW (320°)5.8 mphPartly Cloudy
4:41 AM62.6 °F62.6 °F100 %30.04 in7.0 miNNW (330°)4.6 mphPartly Cloudy
5:44 AM62.6 °F60.8 °F94 %30.04 in7.0 miNNW (330°)5.8 mphScattered Clouds
6:41 AM62.6 °F60.8 °F94 %30.06 in7.0 miNNW (330°)6.9 mphScattered Clouds
7:47 AM68.0 °F62.6 °F83 %30.09 in7.0 miNW (320°)5.8 mphScattered Clouds
8:44 AM75.2 °F66.2 °F73 %30.10 in7.0 miNNW (330°)4.6 mphScattered Clouds
9:41 AM77.0 °F64.4 °F65 %30.11 in7.0 miNorth (360°)5.8 mphMostly Cloudy
10:44 AM77.0 °F64.4 °F65 %30.11 in7.0 miNNE (30°)4.6 mphMostly Cloudy
11:47 AM78.8 °F62.6 °F57 %30.09 in7.0 miNE (40°)4.6 mphMostly Cloudy
12:42 PM78.8 °F64.4 °F61 %30.06 in7.0 miENE (60°)6.9 mphMostly Cloudy
1:44 PM80.6 °F62.6 °F54 %30.04 in7.0 miNE (40°)6.9 mphMostly Cloudy
2:47 PM78.8 °F62.6 °F57 %30.04 in7.0 miENE (60°)8.1 mphMostly Cloudy
3:43 PM78.8 °F62.6 °F57 %30.04 in7.0 miNE (40°)6.9 mphMostly Cloudy
4:47 PM77.0 °F64.4 °F65 %30.04 in7.0 miENE (60°)5.8 mphMostly Cloudy
5:46 PM73.4 °F64.4 °F73 %30.05 in7.0 miNNE (20°)2.3 mphMostly Cloudy
6:46 PM71.6 °F64.4 °F78 %30.05 in7.0 miNorth (10°)3.5 mphMostly Cloudy
7:45 PM69.8 °F64.4 °F83 %30.06 in7.0 miNorth (360°)2.3 mphMostly Cloudy
8:43 PM69.8 °F64.4 °F83 %30.08 in7.0 miNNW (330°)4.6 mphScattered Clouds
9:48 PM68.0 °F64.4 °F88 %30.09 in7.0 miNNW (330°)5.8 mphScattered Clouds
10:47 PM68.0 °F66.2 °F94 %30.08 in7.0 miNNW (330°)5.8 mphScattered Clouds
11:46 PM68.0 °F66.2 °F94 %30.03 in7.0 miNNW (330°)5.8 mphScattered Clouds
Hourly data recorded from MMUN, located miles away from Cancun, Quintana Roo







STORIES FROM OUR PARTNERS